Location: Guayaquil
(2.1667°S, 79.9000°W)
Time: 07:22:34
(UTC-05:00)

Envisat - Visible Passes

Search period start: 27 September 2022 00:00
Search period end: 07 October 2022 00:00
Orbit: 764 x 765 km, 98.2° (Epoch: 26 September)

Date Brightness Start Highest point End Pass type
(mag) Time Alt. Az. Time Alt. Az. Time Alt. Az.
27 Sep 3.4 04:37:39 10° N 04:49:34 - SSW 04:41:26 41° NW visible
28 Sep 4.0 04:00:41 10° NNE 04:11:40 - S 04:04:08 41° NE visible
29 Sep 5.5 03:25:08 10° NE 03:33:44 - SSE 03:26:51 16° ENE visible
29 Sep 4.1 05:03:35 10° NNW 05:13:53 - SW 05:07:02 23° WNW visible
30 Sep 3.1 04:25:40 10° N 04:35:56 - SSW 04:29:47 55° NNW visible
01 Oct 4.3 03:49:05 10° NNE 03:57:58 13° S 03:58:36 10° S visible
01 Oct 4.7 05:31:19 10° WNW 05:32:34 11° WNW 05:32:43 11° W visible
02 Oct 5.8 03:14:17 10° ENE 03:19:57 - SE 03:15:19 13° E visible
02 Oct 3.6 04:51:15 10° NNW 05:00:05 11° SW 05:00:13 10° SW visible
03 Oct 3.0 04:13:47 10° NNE 04:21:59 24° S 04:23:57 10° S visible
04 Oct 4.7 03:37:37 10° NE 03:43:45 24° SE 03:46:25 10° SSE visible
04 Oct 4.4 05:17:48 10° NW 05:20:45 16° WNW 05:21:39 15° W visible
05 Oct 6.0 03:04:56 10° E 03:05:13 10° ESE 03:05:31 10° ESE visible
05 Oct 3.2 04:39:05 10° N 04:43:53 44° WNW 04:48:43 10° SSW visible
06 Oct 3.3 04:02:02 10° NNE 04:07:02 63° ESE 04:12:03 10° S visible
